| time (UTC) | temp C | wind direction | speed KPH | gust KPH | rain 1hr cm | rain 24hr cm | rain mn cm | humidity % | barometer mb |
| 20260510093705 | 20 | 105 | 0.0 | 0.0 | 0.00 | 0.03 | 0.03 | 100 | 1064.5 |
| 20260510092706 | 20 | 105 | 0.0 | 0.0 | 0.00 | 0.03 | 0.03 | 99 | 1065.0 |
| 20260510092205 | 20 | 105 | 0.0 | 0.0 | 0.00 | 0.03 | 0.03 | 99 | 1065.2 |
| 20260510091706 | 20 | 105 | 0.0 | 0.0 | 0.00 | 0.03 | 0.03 | 99 | 1065.2 |
| 20260510091206 | 20 | 105 | 0.0 | 0.0 | 0.00 | 0.03 | 0.03 | 99 | 1065.3 |
| 20260510090705 | 20 | 105 | 0.0 | 1.6 | 0.00 | 0.03 | 0.03 | 99 | 1065.2 |
| 20260510090205 | 20 | 93 | 0.0 | 0.0 | 0.00 | 0.03 | 0.03 | 99 | 1065.2 |
| 20260510085705 | 20 | 93 | 0.0 | 0.0 | 0.00 | 0.03 | 0.03 | 99 | 1065.1 |
| 20260510085205 | 20 | 93 | 0.0 | 0.0 | 0.00 | 0.03 | 0.03 | 99 | 1065.1 |
| 20260510084705 | 20 | 93 | 0.0 | 0.0 | 0.00 | 0.03 | 0.03 | 99 | 1065.2 |
| 20260510084205 | 20 | 93 | 0.0 | 0.0 | 0.00 | 0.03 | 0.03 | 99 | 1065.2 |
| 20260510083705 | 20 | 93 | 0.0 | 0.0 | 0.00 | 0.03 | 0.03 | 99 | 1065.2 |
| 20260510083206 | 20 | 93 | 0.0 | 0.0 | 0.00 | 0.03 | 0.03 | 99 | 1065.0 |
| 20260510082705 | 20 | 93 | 0.0 | 0.0 | 0.00 | 0.03 | 0.03 | 99 | 1065.0 |
| 20260510082205 | 20 | 93 | 0.0 | 0.0 | 0.00 | 0.03 | 0.03 | 99 | 1065.0 |
| 20260510081705 | 20 | 93 | 0.0 | 0.0 | 0.00 | 0.03 | 0.03 | 99 | 1065.0 |
| 20260510081205 | 20 | 93 | 0.0 | 0.0 | 0.00 | 0.03 | 0.03 | 99 | 1065.0 |
| 20260510080705 | 20 | 93 | 0.0 | 0.0 | 0.00 | 0.03 | 0.03 | 99 | 1065.0 |
| 20260510075705 | 20 | 93 | 0.0 | 0.0 | 0.00 | 0.03 | 0.03 | 99 | 1065.0 |
| 20260510075205 | 20 | 93 | 0.0 | 0.0 | 0.00 | 0.03 | 0.03 | 99 | 1065.0 |
| 20260510074706 | 20 | 93 | 0.0 | 0.0 | 0.00 | 0.03 | 0.03 | 99 | 1065.0 |
| 20260510074205 | 20 | 93 | 0.0 | 0.0 | 0.00 | 0.03 | 0.03 | 99 | 1064.9 |
| 20260510072705 | 20 | 93 | 0.0 | 0.0 | 0.00 | 0.03 | 0.03 | 100 | 1064.8 |
| 20260510072205 | 20 | 93 | 0.0 | 0.0 | 0.00 | 0.03 | 0.03 | 100 | 1064.9 |
| 20260510071705 | 20 | 93 | 0.0 | 0.0 | 0.00 | 0.03 | 0.03 | 100 | 1064.9 |
| 20260510071205 | 20 | 93 | 0.0 | 0.0 | 0.00 | 0.03 | 0.03 | 100 | 1065.1 |
| 20260510070705 | 20 | 93 | 0.0 | 0.0 | 0.00 | 0.03 | 0.03 | 99 | 1065.2 |
| 20260510070205 | 20 | 93 | 0.0 | 0.0 | 0.00 | 0.03 | 0.03 | 99 | 1065.3 |
| 20260510065705 | 20 | 93 | 0.0 | 0.0 | 0.00 | 0.03 | 0.03 | 99 | 1065.4 |
| 20260510065205 | 20 | 93 | 0.0 | 0.0 | 0.00 | 0.03 | 0.03 | 99 | 1065.3 |
| 20260510064205 | 20 | 93 | 0.0 | 0.0 | 0.00 | 0.03 | 0.03 | 99 | 1065.4 |
| 20260510063205 | 20 | 93 | 0.0 | 0.0 | 0.00 | 0.03 | 0.03 | 99 | 1065.3 |
| 20260510062705 | 20 | 93 | 0.0 | 0.0 | 0.00 | 0.03 | 0.03 | 99 | 1065.3 |
| 20260510062205 | 20 | 93 | 0.0 | 0.0 | 0.00 | 0.03 | 0.03 | 99 | 1065.4 |
| 20260510061705 | 20 | 93 | 0.0 | 1.6 | 0.00 | 0.03 | 0.03 | 99 | 1065.3 |
| 20260510061205 | 20 | 98 | 0.0 | 3.2 | 0.00 | 0.03 | 0.03 | 99 | 1065.2 |
| 20260510060706 | 20 | 206 | 0.0 | 0.0 | 0.00 | 0.03 | 0.03 | 99 | 1065.2 |
| 20260510060205 | 20 | 206 | 0.0 | 0.0 | 0.00 | 0.03 | 0.03 | 99 | 1065.2 |
| 20260510055705 | 20 | 206 | 0.0 | 0.0 | 0.00 | 0.03 | 0.03 | 99 | 1065.2 |
| 20260510055205 | 20 | 206 | 0.0 | 0.0 | 0.00 | 0.03 | 0.03 | 99 | 1065.2 |
| 20260510054705 | 20 | 206 | 0.0 | 0.0 | 0.00 | 0.03 | 0.03 | 99 | 1065.3 |
| 20260510053705 | 20 | 206 | 0.0 | 0.0 | 0.00 | 0.03 | 0.03 | 99 | 1065.3 |
| 20260510053205 | 20 | 148 | 0.0 | 1.6 | 0.00 | 0.03 | 0.03 | 99 | 1065.3 |
| 20260510052705 | 20 | 82 | 0.0 | 0.0 | 0.00 | 0.03 | 0.03 | 99 | 1065.3 |
| 20260510052205 | 20 | 82 | 0.0 | 1.6 | 0.00 | 0.03 | 0.03 | 99 | 1065.4 |
| 20260510051705 | 20 | 87 | 0.0 | 0.0 | 0.00 | 0.03 | 0.03 | 99 | 1065.4 |
| 20260510051204 | 20 | 87 | 0.0 | 1.6 | 0.00 | 0.03 | 0.03 | 99 | 1065.5 |
| 20260510050705 | 20 | 84 | 0.0 | 0.0 | 0.00 | 0.03 | 0.03 | 99 | 1065.5 |
| 20260510045704 | 20 | 92 | 0.0 | 0.0 | 0.00 | 0.03 | 0.03 | 99 | 1065.7 |
| 20260510045205 | 20 | 92 | 0.0 | 0.0 | 0.00 | 0.03 | 0.03 | 99 | 1065.8 |
| 20260510044204 | 20 | 94 | 0.0 | 0.0 | 0.00 | 0.03 | 0.03 | 99 | 1065.8 |
| 20260510043705 | 20 | 94 | 0.0 | 0.0 | 0.00 | 0.03 | 0.03 | 99 | 1065.8 |
| 20260510043205 | 20 | 94 | 0.0 | 0.0 | 0.00 | 0.03 | 0.03 | 99 | 1065.9 |
| 20260510042705 | 20 | 94 | 0.0 | 0.0 | 0.00 | 0.03 | 0.03 | 99 | 1065.9 |
| 20260510042205 | 20 | 94 | 0.0 | 0.0 | 0.00 | 0.03 | 0.03 | 99 | 1065.8 |
| 20260510041705 | 20 | 94 | 0.0 | 0.0 | 0.00 | 0.03 | 0.03 | 99 | 1065.7 |
| 20260510041205 | 20 | 94 | 0.0 | 0.0 | 0.00 | 0.03 | 0.03 | 99 | 1065.7 |
| 20260510040706 | 20 | 94 | 0.0 | 3.2 | 0.00 | 0.03 | 0.03 | 99 | 1065.6 |
| 20260510040205 | 20 | 114 | 0.0 | 3.2 | 0.00 | 0.03 | 0.03 | 99 | 1065.6 |
| 20260510035705 | 20 | 87 | 0.0 | 1.6 | 0.00 | 0.03 | 0.03 | 99 | 1065.6 |
| 20260510033205 | 20 | 79 | 0.0 | 1.6 | 0.00 | 0.03 | 0.03 | 100 | 1064.1 |
| 20260510032705 | 20 | 81 | 1.6 | 1.6 | 0.00 | 0.03 | 0.03 | 100 | 1063.8 |
| 20260510032206 | 20 | 76 | 0.0 | 0.0 | 0.00 | 0.03 | 0.03 | 100 | 1063.4 |
| 20260510031705 | 20 | 76 | 0.0 | 0.0 | 0.00 | 0.03 | 0.03 | 99 | 1063.1 |
| 20260510031205 | 20 | 76 | 0.0 | 0.0 | 0.00 | 0.03 | 0.03 | 99 | 1063.2 |
| 20260510030705 | 20 | 76 | 0.0 | 0.0 | 0.00 | 0.03 | 0.03 | 99 | 1063.1 |
| 20260510025706 | 20 | 76 | 1.6 | 3.2 | 0.00 | 0.03 | 0.03 | 99 | 1063.1 |
| 20260510024705 | 20 | 319 | 0.0 | 0.0 | 0.00 | 0.03 | 0.03 | 100 | 1063.9 |
| 20260510024205 | 20 | 325 | 0.0 | 3.2 | 0.00 | 0.03 | 0.03 | 100 | 1064.2 |
| 20260510023705 | 20 | 97 | 0.0 | 1.6 | 0.00 | 0.03 | 0.03 | 99 | 1064.4 |
| 20260510023205 | 20 | 121 | 1.6 | 1.6 | 0.00 | 0.03 | 0.03 | 100 | 1064.6 |
| 20260510022705 | 20 | 320 | 0.0 | 0.0 | 0.00 | 0.03 | 0.03 | 100 | 1065.3 |
| 20260510022205 | 20 | 320 | 0.0 | 1.6 | 0.00 | 0.03 | 0.03 | 100 | 1065.8 |
| 20260510021705 | 20 | 98 | 1.6 | 3.2 | 0.00 | 0.03 | 0.03 | 99 | 1066.0 |
| 20260510021205 | 20 | 14 | 0.0 | 1.6 | 0.00 | 0.03 | 0.03 | 99 | 1065.3 |
| 20260510020705 | 20 | 103 | 1.6 | 3.2 | 0.00 | 0.03 | 0.03 | 99 | 1065.1 |
| 20260510015705 | 20 | 77 | 0.0 | 3.2 | 0.00 | 0.03 | 0.03 | 99 | 1065.0 |
| 20260510015206 | 20 | 79 | 1.6 | 4.8 | 0.00 | 0.03 | 0.03 | 99 | 1064.6 |
| 20260510014705 | 20 | 80 | 1.6 | 3.2 | 0.00 | 0.03 | 0.03 | 99 | 1064.3 |
| 20260510013705 | 20 | 88 | 0.0 | 4.8 | 0.00 | 0.03 | 0.03 | 100 | 1063.9 |
| 20260510013205 | 20 | 118 | 1.6 | 3.2 | 0.00 | 0.03 | 0.03 | 100 | 1063.7 |
| 20260510012705 | 20 | 84 | 0.0 | 3.2 | 0.00 | 0.03 | 0.03 | 100 | 1064.0 |
| 20260510012205 | 20 | 121 | 1.6 | 3.2 | 0.00 | 0.03 | 0.03 | 100 | 1064.0 |
| 20260510011705 | 20 | 93 | 0.0 | 0.0 | 0.00 | 0.03 | 0.03 | 100 | 1064.2 |
| 20260510011205 | 20 | 93 | 0.0 | 0.0 | 0.00 | 0.03 | 0.03 | 100 | 1064.3 |
| 20260510010704 | 20 | 90 | 0.0 | 1.6 | 0.00 | 0.03 | 0.03 | 100 | 1064.3 |
| 20260510010205 | 20 | 88 | 0.0 | 1.6 | 0.00 | 0.03 | 0.03 | 100 | 1064.5 |
| 20260510005705 | 20 | 277 | 0.0 | 0.0 | 0.00 | 0.03 | 0.03 | 100 | 1064.6 |
| 20260510005205 | 20 | 277 | 0.0 | 0.0 | 0.00 | 0.03 | 0.03 | 100 | 1064.5 |
| 20260510004204 | 20 | 277 | 0.0 | 0.0 | 0.00 | 0.03 | 0.03 | 100 | 1064.4 |
| 20260510003705 | 20 | 277 | 0.0 | 0.0 | 0.00 | 0.03 | 0.03 | 100 | 1064.3 |
| 20260510003205 | 20 | 277 | 0.0 | 0.0 | 0.00 | 0.03 | 0.03 | 100 | 1064.3 |
| 20260510002705 | 20 | 277 | 0.0 | 0.0 | 0.00 | 0.03 | 0.03 | 100 | 1064.3 |
| 20260510001704 | 20 | 277 | 0.0 | 3.2 | 0.00 | 0.03 | 0.03 | 100 | 1064.1 |
| 20260510001205 | 20 | 257 | 1.6 | 4.8 | 0.00 | 0.03 | 0.03 | 100 | 1063.6 |
| 20260510000204 | 20 | 89 | 0.0 | 0.0 | 0.00 | 0.03 | 0.03 | 100 | 1063.3 |
| 20260509235705 | 20 | 89 | 0.0 | 0.0 | 0.00 | 0.03 | 0.03 | 100 | 1063.3 |
| 20260509235205 | 20 | 89 | 0.0 | 1.6 | 0.00 | 0.03 | 0.03 | 100 | 1063.5 |
| 20260509234705 | 20 | 96 | 1.6 | 3.2 | 0.00 | 0.03 | 0.03 | 100 | 1063.5 |
| 20260509234204 | 20 | 125 | 0.0 | 0.0 | 0.00 | 0.03 | 0.03 | 100 | 1063.8 |
| 20260509233205 | 20 | 44 | 0.0 | 1.6 | 0.00 | 0.03 | 0.03 | 100 | 1062.8 |
| 20260509232705 | 20 | 100 | 1.6 | 4.8 | 0.00 | 0.03 | 0.03 | 100 | 1062.6 |
| 20260509232205 | 20 | 108 | 0.0 | 3.2 | 0.00 | 0.03 | 0.03 | 100 | 1062.5 |
| 20260509231704 | 20 | 94 | 3.2 | 4.8 | 0.00 | 0.03 | 0.03 | 100 | 1062.4 |
| 20260509231205 | 20 | 127 | 1.6 | 4.8 | 0.00 | 0.03 | 0.03 | 100 | 1062.5 |
| 20260509230706 | 20 | 86 | 1.6 | 3.2 | 0.00 | 0.03 | 0.03 | 100 | 1063.0 |
| 20260509230205 | 20 | 110 | 3.2 | 3.2 | 0.00 | 0.03 | 0.03 | 100 | 1063.3 |
| 20260509225704 | 20 | 105 | 1.6 | 4.8 | 0.00 | 0.03 | 0.03 | 99 | 1063.6 |
| 20260509225205 | 20 | 123 | 1.6 | 3.2 | 0.00 | 0.03 | 0.03 | 99 | 1063.7 |
| 20260509224705 | 20 | 87 | 0.0 | 9.7 | 0.00 | 0.03 | 0.03 | 99 | 1063.2 |
| 20260509224205 | 20 | 296 | 0.0 | 4.8 | 0.00 | 0.03 | 0.03 | 100 | 1062.6 |
| 20260509223705 | 20 | 79 | 3.2 | 4.8 | 0.00 | 0.03 | 0.03 | 100 | 1062.2 |
| 20260509223205 | 20 | 43 | 3.2 | 4.8 | 0.00 | 0.03 | 0.03 | 100 | 1062.6 |
| 20260509222705 | 20 | 133 | 1.6 | 4.8 | 0.00 | 0.03 | 0.03 | 100 | 1063.1 |
| 20260509222205 | 20 | 87 | 1.6 | 3.2 | 0.00 | 0.03 | 0.03 | 100 | 1063.1 |
| 20260509221705 | 20 | 80 | 1.6 | 3.2 | 0.00 | 0.03 | 0.03 | 100 | 1063.0 |
| 20260509221205 | 20 | 89 | 1.6 | 3.2 | 0.00 | 0.03 | 0.03 | 100 | 1062.9 |
| 20260509220705 | 20 | 84 | 0.0 | 0.0 | 0.00 | 0.03 | 0.03 | 100 | 1062.8 |
| 20260509220204 | 20 | 84 | 0.0 | 1.6 | 0.00 | 0.03 | 0.03 | 99 | 1062.9 |
| 20260509215705 | 20 | 143 | 0.0 | 1.6 | 0.00 | 0.03 | 0.03 | 100 | 1063.0 |
| 20260509215204 | 20 | 99 | 1.6 | 1.6 | 0.00 | 0.03 | 0.03 | 100 | 1062.9 |
| 20260509214705 | 20 | 89 | 1.6 | 1.6 | 0.00 | 0.03 | 0.03 | 100 | 1062.9 |
| 20260509214204 | 20 | 90 | 1.6 | 3.2 | 0.00 | 0.03 | 0.03 | 100 | 1063.1 |
| 20260509213705 | 20 | 95 | 0.0 | 0.0 | 0.00 | 0.03 | 0.03 | 100 | 1063.3 |
| 20260509213204 | 20 | 104 | 0.0 | 1.6 | 0.00 | 0.03 | 0.03 | 100 | 1063.4 |
| 20260509212705 | 20 | 86 | 0.0 | 0.0 | 0.00 | 0.03 | 0.03 | 100 | 1063.6 |
| 20260509212204 | 20 | 86 | 0.0 | 3.2 | 0.00 | 0.03 | 0.03 | 100 | 1063.6 |
| 20260509211706 | 20 | 86 | 1.6 | 3.2 | 0.00 | 0.03 | 0.03 | 100 | 1063.4 |
| 20260509211204 | 20 | 73 | 1.6 | 3.2 | 0.00 | 0.03 | 0.03 | 100 | 1063.2 |
| 20260509210705 | 20 | 356 | 0.0 | 1.6 | 0.00 | 0.03 | 0.03 | 100 | 1063.0 |
| 20260509210204 | 20 | 333 | 0.0 | 3.2 | 0.00 | 0.03 | 0.03 | 100 | 1063.0 |
| 20260509205705 | 20 | 79 | 1.6 | 3.2 | 0.00 | 0.03 | 0.03 | 100 | 1063.3 |
| 20260509205204 | 20 | 91 | 0.0 | 3.2 | 0.00 | 0.03 | 0.03 | 100 | 1063.4 |
| 20260509204705 | 20 | 51 | 1.6 | 3.2 | 0.00 | 0.03 | 0.03 | 100 | 1063.0 |
| 20260509204204 | 20 | 75 | 1.6 | 1.6 | 0.00 | 0.03 | 0.03 | 100 | 1062.9 |
| 20260509202704 | 20 | 238 | 0.0 | 1.6 | 0.00 | 0.03 | 0.03 | 100 | 1063.3 |
| 20260509202204 | 20 | 230 | 0.0 | 3.2 | 0.00 | 0.03 | 0.03 | 100 | 1063.0 |
| 20260509201704 | 20 | 104 | 3.2 | 4.8 | 0.00 | 0.03 | 0.03 | 100 | 1062.9 |
| 20260509201204 | 20 | 100 | 1.6 | 3.2 | 0.00 | 0.03 | 0.03 | 100 | 1062.9 |
| 20260509200704 | 20 | 101 | 3.2 | 3.2 | 0.00 | 0.03 | 0.03 | 100 | 1063.4 |
| 20260509200205 | 20 | 133 | 3.2 | 4.8 | 0.00 | 0.03 | 0.03 | 100 | 1063.4 |
| 20260509195705 | 20 | 112 | 3.2 | 4.8 | 0.00 | 0.03 | 0.03 | 100 | 1063.5 |
| 20260509195205 | 20 | 105 | 1.6 | 3.2 | 0.00 | 0.03 | 0.03 | 100 | 1063.9 |
| 20260509194704 | 20 | 42 | 1.6 | 8.0 | 0.00 | 0.03 | 0.03 | 100 | 1063.8 |
| 20260509193204 | 20 | 332 | 1.6 | 8.0 | 0.00 | 0.03 | 0.03 | 100 | 1064.2 |
| 20260509192704 | 20 | 78 | 1.6 | 3.2 | 0.00 | 0.03 | 0.03 | 100 | 1064.5 |
| 20260509192205 | 20 | 95 | 3.2 | 9.7 | 0.00 | 0.03 | 0.03 | 100 | 1064.4 |
| 20260509191704 | 20 | 66 | 3.2 | 4.8 | 0.00 | 0.03 | 0.03 | 99 | 1064.6 |
| 20260509190705 | 20 | 102 | 4.8 | 9.7 | 0.00 | 0.03 | 0.03 | 100 | 1064.0 |
| 20260509190204 | 20 | 299 | 1.6 | 3.2 | 0.00 | 0.03 | 0.03 | 100 | 1064.8 |
| 20260509185704 | 20 | 93 | 0.0 | 3.2 | 0.00 | 0.03 | 0.03 | 100 | 1064.5 |
| 20260509185204 | 20 | 78 | 1.6 | 4.8 | 0.00 | 0.03 | 0.03 | 100 | 1064.5 |
| 20260509184704 | 21 | 114 | 1.6 | 3.2 | 0.00 | 0.03 | 0.03 | 100 | 1064.4 |
| 20260509184205 | 21 | 101 | 0.0 | 0.0 | 0.00 | 0.03 | 0.03 | 100 | 1064.9 |
| 20260509183704 | 21 | 101 | 1.6 | 4.8 | 0.00 | 0.03 | 0.03 | 100 | 1065.0 |
| 20260509183205 | 21 | 117 | 0.0 | 3.2 | 0.00 | 0.03 | 0.03 | 100 | 1064.9 |
| 20260509182706 | 21 | 119 | 0.0 | 0.0 | 0.00 | 0.03 | 0.03 | 100 | 1065.2 |
| 20260509181707 | 21 | 120 | 1.6 | 4.8 | 0.00 | 0.03 | 0.03 | 100 | 1065.0 |
| 20260509181206 | 20 | 88 | 0.0 | 1.6 | 0.00 | 0.03 | 0.03 | 100 | 1064.8 |
| 20260509180706 | 20 | 99 | 0.0 | 3.2 | 0.00 | 0.03 | 0.03 | 100 | 1064.7 |
| 20260509180206 | 20 | 123 | 1.6 | 3.2 | 0.00 | 0.03 | 0.03 | 100 | 1064.6 |
| 20260509175706 | 20 | 95 | 0.0 | 3.2 | 0.00 | 0.03 | 0.03 | 100 | 1064.9 |
| 20260509175207 | 20 | 109 | 0.0 | 1.6 | 0.00 | 0.03 | 0.03 | 100 | 1065.0 |
| 20260509174706 | 20 | 94 | 0.0 | 1.6 | 0.00 | 0.03 | 0.03 | 100 | 1065.0 |
| 20260509174206 | 20 | 94 | 0.0 | 1.6 | 0.00 | 0.03 | 0.03 | 100 | 1065.1 |
| 20260509173706 | 20 | 314 | 0.0 | 0.0 | 0.00 | 0.03 | 0.03 | 100 | 1065.1 |
| 20260509172706 | 20 | 73 | 1.6 | 4.8 | 0.00 | 0.03 | 0.03 | 100 | 1065.3 |
| 20260509172206 | 20 | 91 | 0.0 | 1.6 | 0.00 | 0.03 | 0.03 | 100 | 1065.0 |
| 20260509171707 | 20 | 92 | 0.0 | 1.6 | 0.00 | 0.03 | 0.03 | 100 | 1065.0 |
| 20260509171206 | 20 | 107 | 3.2 | 4.8 | 0.00 | 0.03 | 0.03 | 100 | 1065.3 |
| 20260509170706 | 20 | 73 | 1.6 | 4.8 | 0.00 | 0.03 | 0.03 | 100 | 1065.3 |
| 20260509170206 | 20 | 97 | 1.6 | 3.2 | 0.00 | 0.03 | 0.03 | 100 | 1065.1 |
| 20260509165706 | 20 | 5 | 0.0 | 1.6 | 0.00 | 0.03 | 0.03 | 100 | 1065.3 |
| 20260509165206 | 20 | 18 | 0.0 | 0.0 | 0.00 | 0.03 | 0.03 | 100 | 1065.5 |
| 20260509164706 | 20 | 18 | 0.0 | 3.2 | 0.00 | 0.03 | 0.03 | 100 | 1065.3 |
| 20260509164206 | 20 | 91 | 1.6 | 4.8 | 0.00 | 0.03 | 0.03 | 100 | 1065.3 |
| 20260509163706 | 20 | 95 | 1.6 | 3.2 | 0.00 | 0.03 | 0.03 | 100 | 1065.3 |
| 20260509163206 | 20 | 76 | 1.6 | 3.2 | 0.00 | 0.03 | 0.03 | 100 | 1065.3 |
| 20260509162707 | 20 | 266 | 1.6 | 3.2 | 0.00 | 0.03 | 0.03 | 100 | 1065.4 |
| 20260509162206 | 20 | 79 | 1.6 | 3.2 | 0.00 | 0.03 | 0.03 | 100 | 1065.3 |
| 20260509161707 | 20 | 20 | 3.2 | 3.2 | 0.00 | 0.03 | 0.03 | 100 | 1065.3 |
| 20260509161206 | 20 | 120 | 3.2 | 3.2 | 0.00 | 0.03 | 0.03 | 99 | 1065.3 |
| 20260509160706 | 20 | 195 | 3.2 | 3.2 | 0.00 | 0.03 | 0.03 | 99 | 1065.2 |
| 20260509160206 | 20 | 341 | 1.6 | 3.2 | 0.00 | 0.03 | 0.03 | 100 | 1065.1 |
| 20260509155706 | 20 | 52 | 1.6 | 3.2 | 0.00 | 0.03 | 0.03 | 100 | 1065.2 |
| 20260509155206 | 20 | 260 | 3.2 | 4.8 | 0.00 | 0.03 | 0.03 | 99 | 1065.4 |
| 20260509154706 | 20 | 125 | 3.2 | 4.8 | 0.00 | 0.03 | 0.03 | 100 | 1065.6 |
| 20260509154206 | 20 | 79 | 3.2 | 3.2 | 0.00 | 0.03 | 0.03 | 100 | 1065.4 |
| 20260509153706 | 20 | 33 | 3.2 | 3.2 | 0.00 | 0.03 | 0.03 | 100 | 1065.2 |
| 20260509153207 | 20 | 82 | 1.6 | 3.2 | 0.00 | 0.03 | 0.03 | 100 | 1065.3 |
| 20260509152706 | 20 | 271 | 1.6 | 3.2 | 0.00 | 0.03 | 0.03 | 100 | 1065.2 |
| 20260509152206 | 20 | 257 | 1.6 | 3.2 | 0.00 | 0.03 | 0.03 | 100 | 1065.4 |
| 20260509151707 | 20 | 255 | 3.2 | 3.2 | 0.00 | 0.03 | 0.03 | 99 | 1065.6 |
| 20260509150705 | 20 | 351 | 3.2 | 3.2 | 0.00 | 0.03 | 0.03 | 100 | 1065.5 |
| 20260509150207 | 20 | 240 | 3.2 | 3.2 | 0.00 | 0.03 | 0.03 | 100 | 1065.2 |
| 20260509145706 | 20 | 246 | 3.2 | 3.2 | 0.00 | 0.03 | 0.03 | 100 | 1064.8 |
| 20260509145206 | 20 | 237 | 3.2 | 3.2 | 0.00 | 0.03 | 0.03 | 100 | 1064.8 |
| 20260509143706 | 19 | 85 | 3.2 | 3.2 | 0.00 | 0.03 | 0.03 | 100 | 1064.5 |
| 20260509143206 | 19 | 234 | 1.6 | 3.2 | 0.00 | 0.03 | 0.03 | 100 | 1064.4 |
| 20260509142706 | 19 | 65 | 1.6 | 3.2 | 0.00 | 0.03 | 0.03 | 100 | 1064.3 |
| 20260509141706 | 19 | 75 | 1.6 | 3.2 | 0.00 | 0.03 | 0.03 | 100 | 1064.4 |
| 20260509141205 | 19 | 99 | 1.6 | 3.2 | 0.00 | 0.03 | 0.03 | 100 | 1064.3 |
| 20260509140706 | 19 | 174 | 1.6 | 3.2 | 0.00 | 0.03 | 0.03 | 100 | 1064.2 |
| 20260509140206 | 19 | 86 | 1.6 | 3.2 | 0.00 | 0.03 | 0.03 | 100 | 1064.2 |
| 20260509135706 | 19 | 95 | 1.6 | 3.2 | 0.00 | 0.03 | 0.03 | 100 | 1063.9 |
| 20260509135206 | 19 | 161 | 0.0 | 0.0 | 0.00 | 0.03 | 0.03 | 100 | 1063.9 |
| 20260509134706 | 19 | 161 | 0.0 | 0.0 | 0.00 | 0.03 | 0.03 | 100 | 1063.8 |
| 20260509133707 | 19 | 161 | 0.0 | 0.0 | 0.00 | 0.03 | 0.03 | 100 | 1064.0 |
| 20260509133206 | 19 | 161 | 1.6 | 3.2 | 0.00 | 0.03 | 0.03 | 100 | 1064.0 |
| 20260509132707 | 19 | 101 | 0.0 | 1.6 | 0.00 | 0.03 | 0.03 | 100 | 1064.2 |
| 20260509131706 | 19 | 216 | 1.6 | 4.8 | 0.00 | 0.03 | 0.03 | 100 | 1064.2 |
| 20260509131206 | 19 | 60 | 4.8 | 8.0 | 0.00 | 0.03 | 0.03 | 99 | 1063.9 |
| 20260509124706 | 19 | 158 | 1.6 | 3.2 | 0.00 | 0.03 | 0.03 | 99 | 1062.6 |
| 20260509124206 | 19 | 98 | 1.6 | 3.2 | 0.00 | 0.03 | 0.03 | 99 | 1062.5 |
| 20260509123706 | 19 | 86 | 1.6 | 4.8 | 0.00 | 0.03 | 0.03 | 99 | 1062.3 |
| 20260509122706 | 19 | 277 | 0.0 | 3.2 | 0.00 | 0.03 | 0.03 | 99 | 1062.2 |
| 20260509122206 | 19 | 303 | 4.8 | 4.8 | 0.00 | 0.03 | 0.03 | 99 | 1061.7 |
| 20260509121706 | 19 | 215 | 1.6 | 4.8 | 0.00 | 0.03 | 0.03 | 99 | 1061.0 |
| 20260509121206 | 19 | 57 | 3.2 | 4.8 | 0.00 | 0.03 | 0.03 | 99 | 1060.9 |
| 20260509120706 | 19 | 231 | 0.0 | 3.2 | 0.00 | 0.03 | 0.03 | 99 | 1060.1 |
| 20260509120206 | 19 | 104 | 1.6 | 3.2 | 0.00 | 0.03 | 0.03 | 98 | 1059.3 |
| 20260509113706 | 21 | 180 | 1.6 | 4.8 | 0.00 | 0.03 | 0.03 | 98 | 1064.4 |
| 20260509113206 | 22 | 93 | 1.6 | 3.2 | 0.00 | 0.03 | 0.03 | 100 | 1065.4 |
| 20260509112206 | 22 | 56 | 0.0 | 0.0 | 0.00 | 0.03 | 0.03 | 100 | 1063.7 |
| 20260509111706 | 22 | 56 | 0.0 | 0.0 | 0.00 | 0.03 | 0.03 | 100 | 1063.5 |
| 20260509111206 | 22 | 56 | 0.0 | 0.0 | 0.00 | 0.03 | 0.03 | 100 | 1063.3 |
| 20260509110705 | 22 | 55 | 0.0 | 1.6 | 0.00 | 0.03 | 0.03 | 100 | 1063.0 |
| 20260509105706 | 22 | 29 | 0.0 | 3.2 | 0.00 | 0.03 | 0.03 | 100 | 1062.6 |
| 20260509104706 | 21 | 93 | 1.6 | 3.2 | 0.00 | 0.03 | 0.03 | 100 | 1062.6 |
| 20260509103705 | 21 | 84 | 0.0 | 4.8 | 0.00 | 0.03 | 0.03 | 100 | 1062.4 |
| 20260509103206 | 21 | 64 | 0.0 | 3.2 | 0.00 | 0.03 | 0.03 | 100 | 1062.3 |
| 20260509102706 | 21 | 51 | 0.0 | 1.6 | 0.00 | 0.03 | 0.03 | 100 | 1062.7 |
| 20260509102206 | 21 | 61 | 1.6 | 1.6 | 0.00 | 0.03 | 0.03 | 100 | 1062.8 |
| 20260509101706 | 21 | 343 | 0.0 | 0.0 | 0.00 | 0.03 | 0.03 | 100 | 1063.0 |
| 20260509100706 | 21 | 331 | 0.0 | 1.6 | 0.00 | 0.03 | 0.03 | 100 | 1062.5 |
| 20260509100206 | 21 | 320 | 0.0 | 0.0 | 0.00 | 0.03 | 0.03 | 100 | 1062.3 |
| 20260509095705 | 21 | 320 | 0.0 | 0.0 | 0.00 | 0.03 | 0.03 | 100 | 1062.2 |
| 20260509095206 | 21 | 320 | 0.0 | 0.0 | 0.00 | 0.03 | 0.03 | 100 | 1062.2 |
| 20260509094706 | 21 | 320 | 0.0 | 3.2 | 0.00 | 0.03 | 0.03 | 100 | 1062.1 |